This is the latest recevied weather packets stored in our database for station/object KE8WAY. If no packets are shown the sender has not sent any weather packets the latest 10 day(s).
| Time | Temp. | Humidity | Pressure | Rain* | Wind** | Luminosity | Snow |
|---|---|---|---|---|---|---|---|
| 1777468423 | 11.67° C | 85% | 1010.1 hPa | 0 mm | - | 143 W/m² | - |
| 1777468119 | 11.67° C | 84% | 1010.1 hPa | 0 mm | - | 165 W/m² | - |
| 1777467816 | 11.67° C | 84% | 1010.3 hPa | 0 mm | - | 147 W/m² | - |
| 1777467511 | 11.67° C | 84% | 1010.4 hPa | 0 mm | - | 232 W/m² | - |
| 1777467206 | 11.67° C | 85% | 1010.5 hPa | 0 mm | - | 198 W/m² | - |
| 1777466904 | 11.67° C | 84% | 1010.5 hPa | 0 mm | - | 153 W/m² | - |
| 1777466601 | 11.67° C | 86% | 1010.5 hPa | 0 mm | - | 176 W/m² | - |
| 1777466298 | 11.67° C | 84% | 1010.4 hPa | 0 mm | - | 172 W/m² | - |
| 1777465995 | 11.67° C | 84% | 1010.4 hPa | 0 mm | - | 163 W/m² | - |
| 1777465690 | 11.67° C | 84% | 1010.1 hPa | 0 mm | - | 241 W/m² | - |
| 1777465386 | 11.67° C | 84% | 1010.3 hPa | 0 mm | - | 137 W/m² | - |
| 1777465085 | 11.11° C | 84% | 1010.4 hPa | 0 mm | - | 140 W/m² | - |
| 1777464781 | 11.11° C | 85% | 1010.7 hPa | 0 mm | - | 99 W/m² | - |
| 1777464477 | 11.11° C | 85% | 1010.5 hPa | 0 mm | - | 76 W/m² | - |
| 1777464173 | 11.11° C | 86% | 1010.5 hPa | 0 mm | - | 54 W/m² | - |
| 1777463872 | 11.11° C | 86% | 1010.5 hPa | 0 mm | - | 65 W/m² | - |
| 1777463568 | 11.11° C | 88% | 1010.4 hPa | 0 mm | - | 86 W/m² | - |
| 1777463263 | 11.11° C | 87% | 1010.2 hPa | 0 mm | - | 55 W/m² | - |
| 1777462960 | 11.11° C | 86% | 1010.4 hPa | 0 mm | - | 39 W/m² | - |
| 1777462656 | 11.11° C | 86% | 1010.6 hPa | 0 mm | - | 31 W/m² | - |
| 1777462351 | 11.11° C | 86% | 1010.6 hPa | 0 mm | - | 23 W/m² | - |
| 1777462047 | 11.11° C | 86% | 1010.6 hPa | 0 mm | - | 12 W/m² | - |
| 1777461745 | 11.11° C | 86% | 1010.8 hPa | 0 mm | - | 6 W/m² | - |
| 1777461439 | 11.11° C | 85% | 1010.7 hPa | 0 mm | - | 8 W/m² | - |
| 1777461136 | 11.11° C | 85% | 1011.2 hPa | 0 mm | - | 11 W/m² | - |
* Rain latest hour (hover to see other rain measurements)
** Current wind speed in m/s (hover to see current wind gust speed)